| time (UTC) | temp F | wind direction | speed MPH | gust MPH | rain 1hr in | rain 24hr in | rain mn in | humidity % | barometer mb |
| 20260504090116 | 48 | 0 | 0.0 | 0.0 | 0.00 | 0.00 | 0.00 | 57 | 1014.6 |
| 20260504081555 | 48 | 0 | 0.0 | 0.0 | 0.00 | 0.00 | 0.00 | 59 | 1014.7 |
| 20260504081042 | 48 | 0 | 0.0 | 0.0 | 0.00 | 0.00 | 0.00 | 59 | 1014.6 |
| 20260504080544 | 48 | 0 | 0.0 | 0.0 | 0.00 | 0.00 | 0.00 | 58 | 1014.7 |
| 20260504050545 | 46 | 0 | 0.0 | 0.0 | 0.00 | 0.00 | 0.00 | 60 | 1015.4 |
| 20260504045545 | 46 | 0 | 0.0 | 1.0 | 0.00 | 0.00 | 0.00 | 59 | 1015.5 |
| 20260504045044 | 46 | 0 | 0.0 | 2.0 | 0.00 | 0.00 | 0.00 | 58 | 1015.5 |
| 20260504044604 | 46 | 0 | 0.0 | 2.0 | 0.00 | 0.00 | 0.00 | 57 | 1015.5 |
| 20260504044041 | 47 | 0 | 0.0 | 1.0 | 0.00 | 0.00 | 0.00 | 58 | 1015.4 |
| 20260504043541 | 47 | 0 | 0.0 | 2.0 | 0.00 | 0.00 | 0.00 | 59 | 1015.4 |
| 20260504043054 | 47 | 0 | 0.0 | 2.0 | 0.00 | 0.00 | 0.00 | 58 | 1015.3 |
| 20260504042543 | 47 | 0 | 0.0 | 0.0 | 0.00 | 0.00 | 0.00 | 57 | 1015.3 |
| 20260504042043 | 47 | 0 | 0.0 | 1.0 | 0.00 | 0.00 | 0.00 | 57 | 1015.3 |
| 20260504041553 | 47 | 0 | 0.0 | 1.0 | 0.00 | 0.00 | 0.00 | 58 | 1015.3 |
| 20260504041043 | 47 | 0 | 0.0 | 1.0 | 0.00 | 0.00 | 0.00 | 57 | 1015.3 |
| 20260504040541 | 47 | 0 | 0.0 | 1.0 | 0.00 | 0.00 | 0.00 | 56 | 1015.2 |
| 20260504040103 | 48 | 0 | 0.0 | 1.0 | 0.00 | 0.00 | 0.00 | 58 | 1015.2 |
| 20260504035541 | 48 | 0 | 0.0 | 1.0 | 0.00 | 0.00 | 0.00 | 57 | 1015.2 |
| 20260504035043 | 48 | 0 | 0.0 | 1.0 | 0.00 | 0.00 | 0.00 | 57 | 1015.2 |
| 20260504034557 | 48 | 0 | 0.0 | 1.0 | 0.00 | 0.00 | 0.00 | 58 | 1015.1 |
| 20260504034040 | 48 | 0 | 0.0 | 1.0 | 0.00 | 0.00 | 0.00 | 58 | 1015.1 |
| 20260504033544 | 48 | 0 | 0.0 | 0.0 | 0.00 | 0.00 | 0.00 | 57 | 1015.1 |
| 20260504033104 | 49 | 0 | 0.0 | 1.0 | 0.00 | 0.00 | 0.00 | 58 | 1015.1 |
| 20260504032547 | 49 | 0 | 0.0 | 1.0 | 0.00 | 0.00 | 0.00 | 57 | 1015.1 |
| 20260504032042 | 49 | 0 | 0.0 | 1.0 | 0.00 | 0.00 | 0.00 | 57 | 1015.1 |
| 20260504031552 | 49 | 0 | 0.0 | 0.0 | 0.00 | 0.00 | 0.00 | 56 | 1015.0 |
| 20260504031041 | 49 | 0 | 0.0 | 0.0 | 0.00 | 0.00 | 0.00 | 56 | 1015.0 |
| 20260504030544 | 49 | 0 | 0.0 | 1.0 | 0.00 | 0.00 | 0.00 | 56 | 1014.9 |
| 20260504030054 | 49 | 0 | 0.0 | 1.0 | 0.00 | 0.00 | 0.00 | 55 | 1014.9 |
| 20260504025544 | 49 | 0 | 0.0 | 2.0 | 0.00 | 0.00 | 0.00 | 55 | 1014.9 |
| 20260504025044 | 49 | 0 | 0.0 | 2.0 | 0.00 | 0.00 | 0.00 | 54 | 1014.8 |
| 20260504024551 | 49 | 185 | 0.0 | 2.0 | 0.00 | 0.00 | 0.00 | 55 | 1014.8 |
| 20260504024044 | 49 | 0 | 0.0 | 1.0 | 0.00 | 0.00 | 0.00 | 53 | 1014.9 |
| 20260504023541 | 49 | 185 | 0.0 | 1.0 | 0.00 | 0.00 | 0.00 | 54 | 1014.8 |
| 20260504023057 | 49 | 0 | 0.0 | 1.0 | 0.00 | 0.00 | 0.00 | 53 | 1014.8 |
| 20260504022545 | 49 | 0 | 0.0 | 1.0 | 0.00 | 0.00 | 0.00 | 53 | 1014.8 |
| 20260504022047 | 49 | 0 | 0.0 | 1.0 | 0.00 | 0.00 | 0.00 | 53 | 1014.8 |
| 20260504021550 | 49 | 0 | 0.0 | 1.0 | 0.00 | 0.00 | 0.00 | 54 | 1014.8 |
| 20260504021046 | 49 | 0 | 0.0 | 1.0 | 0.00 | 0.00 | 0.00 | 54 | 1014.7 |
| 20260504020544 | 50 | 0 | 0.0 | 2.0 | 0.00 | 0.00 | 0.00 | 52 | 1014.7 |
| 20260504020051 | 50 | 185 | 0.0 | 2.0 | 0.00 | 0.00 | 0.00 | 54 | 1014.7 |
| 20260504015542 | 50 | 0 | 0.0 | 1.0 | 0.00 | 0.00 | 0.00 | 52 | 1014.6 |
| 20260504015044 | 50 | 0 | 0.0 | 1.0 | 0.00 | 0.00 | 0.00 | 52 | 1014.6 |
| 20260504014553 | 50 | 0 | 0.0 | 1.0 | 0.00 | 0.00 | 0.00 | 53 | 1014.6 |
| 20260504014042 | 50 | 0 | 0.0 | 1.0 | 0.00 | 0.00 | 0.00 | 52 | 1014.6 |
| 20260504013545 | 50 | 0 | 0.0 | 1.0 | 0.00 | 0.00 | 0.00 | 54 | 1014.6 |
| 20260504013051 | 50 | 0 | 0.0 | 1.0 | 0.00 | 0.00 | 0.00 | 53 | 1014.5 |
| 20260504012547 | 50 | 0 | 0.0 | 2.0 | 0.00 | 0.00 | 0.00 | 53 | 1014.3 |
| 20260504012044 | 50 | 0 | 0.0 | 2.0 | 0.00 | 0.00 | 0.00 | 55 | 1014.3 |
| 20260504011552 | 50 | 0 | 0.0 | 2.0 | 0.00 | 0.00 | 0.00 | 53 | 1014.3 |
| 20260504011044 | 51 | 185 | 0.0 | 2.0 | 0.00 | 0.00 | 0.00 | 53 | 1014.3 |
| 20260504010544 | 51 | 185 | 0.0 | 1.0 | 0.00 | 0.00 | 0.00 | 51 | 1014.2 |
| 20260504010058 | 51 | 0 | 0.0 | 1.0 | 0.00 | 0.00 | 0.00 | 51 | 1014.2 |
| 20260504005544 | 51 | 185 | 0.0 | 1.0 | 0.00 | 0.00 | 0.00 | 52 | 1014.3 |
| 20260504005044 | 52 | 0 | 0.0 | 1.0 | 0.00 | 0.00 | 0.00 | 51 | 1014.3 |
| 20260504004551 | 52 | 0 | 0.0 | 2.0 | 0.00 | 0.00 | 0.00 | 50 | 1014.1 |
| 20260504004042 | 52 | 0 | 0.0 | 2.0 | 0.00 | 0.00 | 0.00 | 49 | 1014.2 |
| 20260504003547 | 53 | 0 | 0.0 | 2.0 | 0.00 | 0.00 | 0.00 | 50 | 1014.1 |
| 20260504003047 | 53 | 0 | 0.0 | 1.0 | 0.00 | 0.00 | 0.00 | 48 | 1014.2 |
| 20260504002542 | 54 | 0 | 0.0 | 1.0 | 0.00 | 0.00 | 0.00 | 48 | 1014.0 |
| 20260504002042 | 55 | 0 | 0.0 | 0.0 | 0.00 | 0.00 | 0.00 | 47 | 1014.1 |
| 20260504001607 | 55 | 0 | 0.0 | 0.0 | 0.00 | 0.00 | 0.00 | 43 | 1014.0 |
| 20260504001042 | 56 | 0 | 0.0 | 0.0 | 0.00 | 0.00 | 0.00 | 42 | 1014.0 |
| 20260504000543 | 56 | 0 | 0.0 | 1.0 | 0.00 | 0.00 | 0.00 | 42 | 1013.9 |
| 20260504000052 | 57 | 0 | 0.0 | 1.0 | 0.00 | 0.00 | 0.00 | 38 | 1013.9 |
| 20260503235541 | 57 | 0 | 0.0 | 0.0 | 0.00 | 0.00 | 0.00 | 39 | 1013.8 |
| 20260503235042 | 58 | 0 | 0.0 | 0.0 | 0.00 | 0.00 | 0.00 | 37 | 1013.9 |
| 20260503234549 | 59 | 0 | 0.0 | 2.0 | 0.00 | 0.00 | 0.00 | 37 | 1013.8 |
| 20260503234044 | 59 | 0 | 0.0 | 3.0 | 0.00 | 0.00 | 0.00 | 35 | 1013.8 |
| 20260503233544 | 59 | 224 | 0.0 | 4.0 | 0.00 | 0.00 | 0.00 | 35 | 1013.7 |
| 20260503233049 | 59 | 224 | 0.0 | 8.0 | 0.00 | 0.00 | 0.00 | 35 | 1013.6 |
| 20260503232546 | 60 | 0 | 1.0 | 8.0 | 0.00 | 0.00 | 0.00 | 34 | 1013.6 |
| 20260503232045 | 60 | 266 | 3.0 | 8.0 | 0.00 | 0.00 | 0.00 | 33 | 1013.6 |
| 20260503231554 | 60 | 0 | 1.0 | 6.0 | 0.00 | 0.00 | 0.00 | 33 | 1013.6 |
| 20260503231045 | 61 | 307 | 2.0 | 6.0 | 0.00 | 0.00 | 0.00 | 34 | 1013.5 |
| 20260503230544 | 61 | 264 | 1.0 | 4.0 | 0.00 | 0.00 | 0.00 | 32 | 1013.5 |
| 20260503230051 | 61 | 270 | 1.0 | 9.0 | 0.00 | 0.00 | 0.00 | 33 | 1013.4 |
| 20260503225542 | 61 | 146 | 2.0 | 9.0 | 0.00 | 0.00 | 0.00 | 32 | 1013.5 |
| 20260503225042 | 61 | 223 | 2.0 | 8.0 | 0.00 | 0.00 | 0.00 | 33 | 1013.4 |
| 20260503224549 | 61 | 244 | 2.0 | 6.0 | 0.00 | 0.00 | 0.00 | 33 | 1013.4 |
| 20260503224043 | 61 | 0 | 1.0 | 6.0 | 0.00 | 0.00 | 0.00 | 33 | 1013.4 |
| 20260503223543 | 61 | 213 | 2.0 | 7.0 | 0.00 | 0.00 | 0.00 | 33 | 1013.3 |
| 20260503223057 | 61 | 262 | 1.0 | 7.0 | 0.00 | 0.00 | 0.00 | 34 | 1013.4 |
| 20260503222547 | 62 | 270 | 2.0 | 7.0 | 0.00 | 0.00 | 0.00 | 35 | 1013.6 |
| 20260503222043 | 61 | 233 | 0.0 | 10.0 | 0.00 | 0.00 | 0.00 | 33 | 1013.6 |
| 20260503221551 | 61 | 193 | 2.0 | 11.0 | 0.00 | 0.00 | 0.00 | 33 | 1013.6 |
| 20260503221046 | 61 | 290 | 1.0 | 11.0 | 0.00 | 0.00 | 0.00 | 33 | 1013.6 |
| 20260503220544 | 61 | 254 | 2.0 | 7.0 | 0.00 | 0.00 | 0.00 | 32 | 1013.8 |
| 20260503220108 | 61 | 183 | 2.0 | 11.0 | 0.00 | 0.00 | 0.00 | 34 | 1013.6 |
| 20260503215541 | 61 | 227 | 2.0 | 11.0 | 0.00 | 0.00 | 0.00 | 33 | 1013.6 |
| 20260503215044 | 61 | 285 | 3.0 | 11.0 | 0.00 | 0.00 | 0.00 | 35 | 1013.7 |
| 20260503214549 | 61 | 156 | 4.0 | 10.0 | 0.00 | 0.00 | 0.00 | 34 | 1013.6 |
| 20260503214049 | 61 | 199 | 4.0 | 10.0 | 0.00 | 0.00 | 0.00 | 34 | 1013.6 |
| 20260503213544 | 61 | 174 | 4.0 | 10.0 | 0.00 | 0.00 | 0.00 | 33 | 1013.7 |
| 20260503213050 | 61 | 234 | 3.0 | 12.0 | 0.00 | 0.00 | 0.00 | 33 | 1013.8 |
| 20260503212542 | 61 | 245 | 3.0 | 12.0 | 0.00 | 0.00 | 0.00 | 35 | 1013.7 |
| 20260503212042 | 61 | 244 | 3.0 | 10.0 | 0.00 | 0.00 | 0.00 | 33 | 1013.8 |
| 20260503211605 | 61 | 303 | 3.0 | 10.0 | 0.00 | 0.00 | 0.00 | 35 | 1013.6 |
| 20260503211045 | 61 | 226 | 4.0 | 10.0 | 0.00 | 0.00 | 0.00 | 35 | 1013.7 |
| 20260503210544 | 61 | 316 | 3.0 | 9.0 | 0.00 | 0.00 | 0.00 | 35 | 1013.6 |
| 20260503210057 | 61 | 265 | 4.0 | 10.0 | 0.00 | 0.00 | 0.00 | 33 | 1013.7 |
| 20260503205544 | 61 | 251 | 2.0 | 10.0 | 0.00 | 0.00 | 0.00 | 35 | 1013.7 |
| 20260503205044 | 61 | 321 | 2.0 | 10.0 | 0.00 | 0.00 | 0.00 | 37 | 1013.6 |
| 20260503204557 | 61 | 279 | 4.0 | 10.0 | 0.00 | 0.00 | 0.00 | 36 | 1013.7 |
| 20260503204043 | 61 | 232 | 2.0 | 7.0 | 0.00 | 0.00 | 0.00 | 34 | 1013.7 |
| 20260503203543 | 61 | 293 | 3.0 | 7.0 | 0.00 | 0.00 | 0.00 | 33 | 1013.7 |
| 20260503203053 | 61 | 225 | 3.0 | 8.0 | 0.00 | 0.00 | 0.00 | 36 | 1013.8 |
| 20260503202544 | 60 | 256 | 3.0 | 9.0 | 0.00 | 0.00 | 0.00 | 33 | 1013.8 |
| 20260503202047 | 60 | 0 | 3.0 | 10.0 | 0.00 | 0.00 | 0.00 | 32 | 1013.7 |
| 20260503201551 | 60 | 271 | 5.0 | 10.0 | 0.00 | 0.00 | 0.00 | 34 | 1014.0 |
| 20260503201046 | 60 | 294 | 2.0 | 10.0 | 0.00 | 0.00 | 0.00 | 41 | 1013.9 |
| 20260503200547 | 60 | 303 | 1.0 | 15.0 | 0.00 | 0.00 | 0.00 | 35 | 1014.0 |
| 20260503200050 | 60 | 342 | 2.0 | 15.0 | 0.00 | 0.00 | 0.00 | 33 | 1014.1 |
| 20260503195545 | 61 | 5 | 3.0 | 11.0 | 0.00 | 0.00 | 0.00 | 34 | 1014.2 |
| 20260503195042 | 60 | 233 | 3.0 | 11.0 | 0.00 | 0.00 | 0.00 | 33 | 1014.3 |
| 20260503194550 | 60 | 238 | 4.0 | 11.0 | 0.00 | 0.00 | 0.00 | 34 | 1014.4 |
| 20260503194044 | 60 | 299 | 2.0 | 14.0 | 0.00 | 0.00 | 0.00 | 35 | 1014.3 |
| 20260503193544 | 60 | 302 | 3.0 | 14.0 | 0.00 | 0.00 | 0.00 | 35 | 1014.5 |
| 20260503193057 | 60 | 0 | 1.0 | 10.0 | 0.00 | 0.00 | 0.00 | 37 | 1014.5 |
| 20260503192544 | 60 | 257 | 3.0 | 10.0 | 0.00 | 0.00 | 0.00 | 33 | 1014.8 |
| 20260503192044 | 59 | 334 | 1.0 | 9.0 | 0.00 | 0.00 | 0.00 | 38 | 1014.5 |
| 20260503191551 | 59 | 202 | 1.0 | 12.0 | 0.00 | 0.00 | 0.00 | 36 | 1014.7 |
| 20260503191046 | 59 | 225 | 2.0 | 13.0 | 0.00 | 0.00 | 0.00 | 37 | 1014.9 |
| 20260503190544 | 59 | 267 | 4.0 | 13.0 | 0.00 | 0.00 | 0.00 | 35 | 1015.0 |
| 20260503190053 | 59 | 242 | 2.0 | 12.0 | 0.00 | 0.00 | 0.00 | 37 | 1014.9 |
| 20260503185544 | 58 | 0 | 2.0 | 12.0 | 0.00 | 0.00 | 0.00 | 36 | 1014.7 |
| 20260503185044 | 58 | 325 | 3.0 | 12.0 | 0.00 | 0.00 | 0.00 | 38 | 1015.0 |
| 20260503184554 | 58 | 293 | 5.0 | 10.0 | 0.00 | 0.00 | 0.00 | 35 | 1015.0 |
| 20260503184042 | 58 | 40 | 2.0 | 12.0 | 0.00 | 0.00 | 0.00 | 36 | 1015.1 |
| 20260503183545 | 57 | 236 | 3.0 | 12.0 | 0.00 | 0.00 | 0.00 | 37 | 1015.1 |
| 20260503183050 | 57 | 277 | 2.0 | 13.0 | 0.00 | 0.00 | 0.00 | 38 | 1015.3 |
| 20260503182545 | 57 | 263 | 3.0 | 13.0 | 0.00 | 0.00 | 0.00 | 38 | 1015.1 |
| 20260503182044 | 56 | 291 | 5.0 | 13.0 | 0.00 | 0.00 | 0.00 | 38 | 1015.3 |
| 20260503181618 | 57 | 275 | 4.0 | 11.0 | 0.00 | 0.00 | 0.00 | 38 | 1015.4 |
| 20260503181044 | 57 | 268 | 3.0 | 10.0 | 0.00 | 0.00 | 0.00 | 40 | 1015.3 |
| 20260503180544 | 57 | 268 | 2.0 | 10.0 | 0.00 | 0.00 | 0.00 | 41 | 1015.3 |
| 20260503180104 | 56 | 277 | 3.0 | 10.0 | 0.00 | 0.00 | 0.00 | 42 | 1015.4 |
| 20260503175543 | 56 | 246 | 4.0 | 10.0 | 0.00 | 0.00 | 0.00 | 40 | 1015.6 |
| 20260503175043 | 55 | 217 | 3.0 | 13.0 | 0.00 | 0.00 | 0.00 | 43 | 1015.5 |
| 20260503174557 | 55 | 273 | 2.0 | 13.0 | 0.00 | 0.00 | 0.00 | 44 | 1015.6 |
| 20260503174045 | 55 | 292 | 4.0 | 12.0 | 0.00 | 0.00 | 0.00 | 40 | 1015.8 |
| 20260503173546 | 55 | 229 | 4.0 | 13.0 | 0.00 | 0.00 | 0.00 | 42 | 1015.8 |
| 20260503173058 | 55 | 253 | 4.0 | 13.0 | 0.00 | 0.00 | 0.00 | 41 | 1015.8 |
| 20260503172548 | 54 | 269 | 2.0 | 11.0 | 0.00 | 0.00 | 0.00 | 43 | 1015.7 |
| 20260503172048 | 54 | 192 | 3.0 | 11.0 | 0.00 | 0.00 | 0.00 | 42 | 1015.8 |
| 20260503171551 | 55 | 264 | 3.0 | 11.0 | 0.00 | 0.00 | 0.00 | 42 | 1015.8 |
| 20260503171048 | 54 | 146 | 3.0 | 13.0 | 0.00 | 0.00 | 0.00 | 48 | 1015.8 |
| 20260503170544 | 52 | 298 | 3.0 | 13.0 | 0.00 | 0.00 | 0.00 | 46 | 1015.8 |
| 20260503150546 | 47 | 0 | 2.0 | 10.0 | 0.00 | 0.00 | 0.00 | 54 | 1016.8 |
| 20260503150103 | 47 | 247 | 2.0 | 9.0 | 0.00 | 0.00 | 0.00 | 56 | 1016.8 |
| 20260503131044 | 43 | 360 | 3.0 | 8.0 | 0.00 | 0.00 | 0.00 | 63 | 1017.1 |
| 20260503130544 | 43 | 225 | 2.0 | 9.0 | 0.00 | 0.00 | 0.00 | 63 | 1017.1 |
| 20260503120106 | 39 | 274 | 2.0 | 9.0 | 0.00 | 0.00 | 0.00 | 72 | 1017.0 |
| 20260503110638 | 36 | 0 | 0.0 | 3.0 | 0.00 | 0.00 | 0.00 | 77 | 1016.2 |
| 20260503100105 | 36 | 277 | 0.0 | 2.0 | 0.00 | 0.00 | 0.00 | 77 | 1015.1 |